This is the latest recevied weather packets stored in our database for station/object NT9M-13. If no packets are shown the sender has not sent any weather packets the latest 10 day(s).
| Time | Temp. | Humidity | Pressure | Rain* | Wind** | Luminosity | Snow |
|---|---|---|---|---|---|---|---|
| 1777854585 | 11.67° C | 77% | 1009.4 hPa | 0 mm | - | - | - |
| 1777852785 | 12.22° C | 76% | 1009.7 hPa | 0 mm | - | - | - |
| 1777847985 | 11.67° C | 74% | 1010.8 hPa | 0 mm | - | - | - |
| 1777846786 | 11.67° C | 75% | 1011 hPa | 0 mm | - | - | - |
| 1777843185 | 12.22° C | 72% | 1011.9 hPa | 0 mm | - | - | - |
| 1777840186 | 12.78° C | 70% | 1012.6 hPa | 0 mm | - | - | - |
| 1777833586 | 17.78° C | 51% | 1012.8 hPa | 0 mm | - | - | - |
| 1777832986 | 17.78° C | 52% | 1012.9 hPa | 0 mm | - | - | - |
| 1777824586 | 15.56° C | 56% | 1014.7 hPa | 0 mm | - | - | - |
| 1777820385 | 13.33° C | 60% | 1015.1 hPa | 0 mm | - | - | - |
| 1777817986 | 11.67° C | 63% | 1015.2 hPa | 0 mm | - | - | - |
| 1777815586 | 11.11° C | 62% | 1015.4 hPa | 0 mm | - | - | - |
| 1777813186 | 9.44° C | 68% | 1015 hPa | 0 mm | - | - | - |
| 1777806587 | 6.11° C | 75% | 1014.6 hPa | 0 mm | - | - | - |
| 1777805386 | 6.11° C | 76% | 1014.6 hPa | 0 mm | - | - | - |
| 1777804186 | 6.11° C | 76% | 1014.6 hPa | 0 mm | - | - | - |
| 1777799986 | 5.56° C | 77% | 1015 hPa | 0 mm | - | - | - |
| 1777798186 | 5.56° C | 77% | 1015.1 hPa | 0 mm | - | - | - |
| 1777794586 | 5.56° C | 75% | 1015.2 hPa | 0 mm | - | - | - |
| 1777792186 | 5.56° C | 74% | 1015.4 hPa | 0 mm | - | - | - |
| 1777787987 | 5° C | 77% | 1016.1 hPa | 0 mm | - | - | - |
| 1777787387 | 5° C | 77% | 1016.1 hPa | 0 mm | - | - | - |
| 1777786787 | 5° C | 77% | 1016.3 hPa | 0 mm | - | - | - |
| 1777775987 | 6.67° C | 70% | 1016.3 hPa | 4.32 mm | - | - | - |
| 1777774787 | 6.67° C | 2% | 1016.5 hPa | 5.59 mm | - | - | - |
* Rain latest hour (hover to see other rain measurements)
** Current wind speed in m/s (hover to see current wind gust speed)